Content
SEND FEEDBACK

Daily
Averages
Monthly
Summary
United States of America

ATASCADERO, CALIFORNIA


Home > North America > United States > California
Elevation: 12 feet     Latitude: 35 22N     Longitude: 120 51W

WEATHER
 
SELECT A DAY
Number of Records: 190,712;   Date Range: 1/1/95 - 4/18/14
 
SHARE

PRINT THIS DATA

[ ← Previous Day ]
WEATHER ALMANAC - JANUARY 31, 2013
[ Next Day → ]
[ °C ]   °F
Weather ElementAverageHighLow
Temperature51.3 °F71.1 °F (1:56 pm)37.9 °F (5:56 am)
Dewpoint41.7 °F51.1 °F (2:56 pm)36 °F (5:56 am)
Humidity73.1 %97 % (6:56 am)35 % (12:56 pm)
Barometer30.20 in30.26 in (1:56 am)30.14 in (2:56 pm)
Wind Speed2.4 mph11.5 mph (4:56 pm)
Weather ElementAverage
Visibility10 mi
Wind DirectionENE (77.3 °)

Weather ElementTotal
Precipitation---
Heating Degree Days10.5 (Base 65)
Growing Degree Days4.5 (Base 50)
Averaged from 22 records on January 31, 2013
WEATHER CONDITIONS BREAKOUT
WIND DIRECTION BREAKOUT
WEATHER BY HOUR - JANUARY 31, 2013
[ °C ]   °F
Local TimeTemperatureDewpointHumidityBarometerVisibilityWind DirectionWind SpeedGust SpeedPrecipitationEventsConditions
1:56 AM39.0 °F37.0 °F93 %30.26 in10.0 miNorthClear
2:56 AM39.0 °F37.0 °F93 %30.25 in10.0 miCalmClear
3:56 AM39.0 °F37.0 °F93 %30.23 in10.0 miESE (120°)3.5 mphClear
4:56 AM39.0 °F37.0 °F93 %30.22 in10.0 miCalmClear
5:56 AM37.9 °F36.0 °F93 %30.22 in10.0 miCalmClear
6:56 AM37.9 °F37.0 °F97 %30.22 in10.0 miCalmClear
7:56 AM39.9 °F37.9 °F93 %30.23 in10.0 miCalmClear
8:56 AM46.9 °F42.1 °F83 %30.24 in10.0 miCalmClear
9:56 AM55.9 °F45.0 °F67 %30.24 in10.0 miCalmClear
10:56 AM62.1 °F45.0 °F53 %30.24 in10.0 miCalmClear
11:56 AM66.9 °F44.1 °F44 %30.21 in10.0 miCalmClear
12:56 PM70.0 °F41.0 °F35 %30.18 in10.0 miCalmClear
1:56 PM71.1 °F48.0 °F44 %30.16 in10.0 miNW (310°)8.1 mphClear
2:56 PM66.9 °F51.1 °F57 %30.14 in10.0 miNW (310°)8.1 mphClear
3:56 PM64.0 °F48.0 °F56 %30.15 in10.0 miNW (310°)10.4 mphClear
4:56 PM60.1 °F44.1 °F55 %30.15 in10.0 miNNW (330°)11.5 mphClear
5:56 PM55.0 °F42.1 °F62 %30.15 in10.0 miNW (320°)8.1 mphClear
6:56 PM53.1 °F42.1 °F66 %30.17 in10.0 miCalmClear
7:56 PM50.0 °F42.1 °F74 %30.17 in10.0 miCalmClear
8:56 PM48.0 °F42.1 °F80 %30.17 in10.0 miCalmClear
10:56 PM44.1 °F41.0 °F89 %30.17 in10.0 miCalmClear
11:56 PM43.0 °F39.9 °F89 %30.16 in10.0 miCalmClear
Hourly data recorded from KSBP, located 14.72 miles away from Atascadero, California







STORIES FROM OUR PARTNERS